FW0014 Weather Reports


time (UTC)temp
C
wind
direction
speed
KPH
gust
KPH
rain 1hr
cm
rain 24hr
cm
rain mn
cm
humidity
%
barometer
mb
20260906082329 26 131 0.0 3.2 0.00 0.00 0.00 75 1014.6
20260906082040 25 131 0.0 3.2 0.00 0.00 0.00 75 1011.6
20260906081847 26 131 0.0 0.0 0.00 0.00 0.00 75 1014.6
20260906081603 25 130 0.0 0.0 0.00 0.00 0.00 75 1011.7
20260906081323 26 130 0.0 0.0 0.00 0.00 0.00 75 1014.7
20260906081057 25 130 0.0 1.6 0.00 0.00 0.00 75 1011.6
20260906080821 26 131 0.0 1.6 0.00 0.00 0.00 75 1014.6
20260906080546 25 130 0.0 1.6 0.00 0.00 0.00 75 1011.7
20260906080340 26 131 0.0 3.2 0.00 0.00 0.00 75 1014.8
20260906080034 25 130 0.0 3.2 0.00 0.00 0.00 75 1011.8
20260906075830 26 131 0.0 3.2 0.00 0.00 0.00 75 1014.7
20260906075517 25 130 0.0 4.8 0.00 0.00 0.00 75 1011.8
20260906075350 26 131 0.0 4.8 0.00 0.00 0.00 75 1014.7
20260906075050 25 130 0.0 4.8 0.00 0.00 0.00 75 1011.7
20260906074826 26 130 0.0 4.8 0.00 0.00 0.00 75 1014.8
20260906074538 25 130 0.0 3.2 0.00 0.00 0.00 74 1011.9
20260906074345 26 130 0.0 3.2 0.00 0.00 0.00 74 1015.0
20260906074103 25 130 0.0 3.2 0.00 0.00 0.00 74 1012.0
20260906073822 26 131 0.0 3.2 0.00 0.00 0.00 74 1014.9
20260906073554 25 130 0.0 1.6 0.00 0.00 0.00 74 1011.9
20260906073340 26 131 0.0 1.6 0.00 0.00 0.00 74 1014.9
20260906073042 25 130 0.0 1.6 0.00 0.00 0.00 74 1012.1
20260906072831 26 130 0.0 1.6 0.00 0.00 0.00 74 1015.0
20260906072532 25 130 0.0 3.2 0.00 0.00 0.00 74 1012.1
20260906072350 26 130 0.0 3.2 0.00 0.00 0.00 74 1015.0
20260906072056 25 130 0.0 3.2 0.00 0.00 0.00 74 1012.1
20260906071827 26 130 1.6 3.2 0.00 0.00 0.00 74 1015.2
20260906071550 25 131 1.6 3.2 0.00 0.00 0.00 74 1012.3
20260906071325 26 130 1.6 3.2 0.00 0.00 0.00 74 1015.1
20260906071036 25 130 1.6 3.2 0.00 0.00 0.00 74 1012.2
20260906070823 26 130 1.6 1.6 0.00 0.00 0.00 73 1015.2
20260906070526 25 130 0.0 0.0 0.00 0.00 0.00 73 1012.1
20260906070320 26 130 0.0 0.0 0.00 0.00 0.00 73 1015.0
20260906070008 26 131 0.0 0.0 0.00 0.00 0.00 72 1012.3
20260906065818 26 131 0.0 0.0 0.00 0.00 0.00 72 1015.3
20260906065602 26 130 0.0 0.0 0.00 0.00 0.00 72 1012.3
20260906065317 26 130 0.0 0.0 0.00 0.00 0.00 72 1015.3
20260906065050 26 130 0.0 0.0 0.00 0.00 0.00 72 1012.3
20260906064815 26 130 0.0 0.0 0.00 0.00 0.00 72 1015.2
20260906064541 26 131 0.0 0.0 0.00 0.00 0.00 72 1012.3
20260906064353 26 130 0.0 0.0 0.00 0.00 0.00 71 1015.2
20260906064006 26 131 0.0 0.0 0.00 0.00 0.00 71 1012.3
20260906063850 26 130 0.0 0.0 0.00 0.00 0.00 71 1015.3
20260906063541 26 131 0.0 1.6 0.00 0.00 0.00 70 1012.2
20260906063325 26 130 0.0 1.6 0.00 0.00 0.00 70 1015.3
20260906063038 26 129 0.0 1.6 0.00 0.00 0.00 70 1012.2
20260906062821 26 130 1.6 1.6 0.00 0.00 0.00 70 1015.2
20260906062529 26 131 0.0 1.6 0.00 0.00 0.00 70 1012.3
20260906062319 26 131 0.0 0.0 0.00 0.00 0.00 70 1015.3
20260906062027 26 130 0.0 0.0 0.00 0.00 0.00 69 1012.4
20260906061819 26 131 0.0 0.0 0.00 0.00 0.00 69 1015.3
20260906061516 26 130 0.0 0.0 0.00 0.00 0.00 69 1012.5
20260906061316 26 131 0.0 0.0 0.00 0.00 0.00 69 1015.5
20260906061001 26 130 0.0 1.6 0.00 0.00 0.00 70 1012.5
20260906060815 26 131 0.0 3.2 0.00 0.00 0.00 70 1015.6
20260906060555 26 131 0.0 3.2 0.00 0.00 0.00 70 1012.6
20260906060314 26 131 0.0 3.2 0.00 0.00 0.00 70 1015.6
20260906060049 26 131 0.0 3.2 0.00 0.00 0.00 70 1012.5
20260906055848 27 131 1.6 3.2 0.00 0.00 0.00 70 1015.5
20260906055603 26 130 0.0 3.2 0.00 0.00 0.00 70 1012.6
20260906055325 27 130 1.6 3.2 0.00 0.00 0.00 69 1015.5
20260906055054 26 131 0.0 3.2 0.00 0.00 0.00 69 1012.5
20260906054823 27 131 0.0 3.2 0.00 0.00 0.00 69 1015.5
20260906054558 26 131 0.0 3.2 0.00 0.00 0.00 69 1012.5
20260906054320 27 130 0.0 3.2 0.00 0.00 0.00 69 1015.5
20260906054038 27 130 0.0 3.2 0.00 0.00 0.00 68 1012.6
20260906053839 27 130 0.0 4.8 0.00 0.00 0.00 68 1015.6
20260906053601 27 131 0.0 4.8 0.00 0.00 0.00 68 1012.5
20260906053315 27 131 1.6 4.8 0.00 0.00 0.00 68 1015.6
20260906053059 27 131 1.6 4.8 0.00 0.00 0.00 68 1012.7
20260906052826 27 130 1.6 4.8 0.00 0.00 0.00 68 1015.6
20260906052550 27 131 1.6 4.8 0.00 0.00 0.00 68 1012.7
20260906052345 27 131 1.6 4.8 0.00 0.00 0.00 68 1015.7
20260906052012 27 131 1.6 4.8 0.00 0.00 0.00 68 1012.7
20260906051823 27 130 3.2 4.8 0.00 0.00 0.00 68 1015.6
20260906051503 27 100 0.0 4.8 0.00 0.00 0.00 67 1012.8
20260906051319 27 101 3.2 4.8 0.00 0.00 0.00 67 1015.7
20260906051058 27 104 1.6 4.8 0.00 0.00 0.00 67 1012.7
20260906050815 27 111 1.6 8.0 0.00 0.00 0.00 67 1015.7
20260906050549 27 133 0.0 8.0 0.00 0.00 0.00 67 1012.9
20260906050332 27 133 1.6 8.0 0.00 0.00 0.00 67 1015.9
20260906050047 27 133 3.2 4.8 0.00 0.00 0.00 66 1013.0
20260906045840 27 133 3.2 9.7 0.00 0.00 0.00 66 1015.9
20260906045545 27 133 0.0 9.7 0.00 0.00 0.00 66 1012.8
20260906045337 28 133 1.6 12.9 0.00 0.00 0.00 66 1015.9
20260906045017 27 133 3.2 12.9 0.00 0.00 0.00 66 1012.9
20260906044814 28 100 3.2 12.9 0.00 0.00 0.00 65 1015.8
20260906044609 27 104 3.2 12.9 0.00 0.00 0.00 65 1012.8
20260906044352 28 80 3.2 11.3 0.00 0.00 0.00 65 1015.9
20260906044032 28 73 1.6 11.3 0.00 0.00 0.00 65 1012.9
20260906043829 28 137 3.2 14.5 0.00 0.00 0.00 65 1015.8
20260906043514 28 118 3.2 14.5 0.00 0.00 0.00 65 1012.8
20260906043347 28 113 6.4 14.5 0.00 0.00 0.00 64 1015.7
20260906043047 28 154 6.4 12.9 0.00 0.00 0.00 64 1012.8
20260906042823 28 162 6.4 12.9 0.00 0.00 0.00 64 1015.7
20260906042536 28 150 8.0 14.5 0.00 0.00 0.00 64 1012.7
20260906042341 28 142 8.0 14.5 0.00 0.00 0.00 64 1015.7
20260906042100 28 120 4.8 14.5 0.00 0.00 0.00 63 1012.7
20260906041838 28 119 9.7 14.5 0.00 0.00 0.00 63 1015.7
20260906041531 28 143 4.8 14.5 0.00 0.00 0.00 63 1012.8
20260906041315 28 87 4.8 14.5 0.00 0.00 0.00 63 1015.7
20260906041013 28 142 6.4 16.1 0.00 0.00 0.00 62 1012.8
20260906040833 28 133 8.0 16.1 0.00 0.00 0.00 62 1015.8
20260906040504 28 131 9.7 16.1 0.00 0.00 0.00 62 1012.9
20260906040330 28 118 8.0 16.1 0.00 0.00 0.00 62 1015.7
20260906040059 28 149 9.7 17.7 0.00 0.00 0.00 62 1012.7
20260906035828 29 165 9.7 20.9 0.00 0.00 0.00 62 1015.7
20260906035525 28 118 9.7 20.9 0.00 0.00 0.00 61 1012.7
20260906035326 29 148 9.7 20.9 0.00 0.00 0.00 61 1015.7
20260906035008 28 116 11.3 20.9 0.00 0.00 0.00 61 1012.8
20260906034824 29 122 12.9 20.9 0.00 0.00 0.00 61 1015.7
20260906034615 28 101 9.7 17.7 0.00 0.00 0.00 61 1012.8
20260906034322 29 149 6.4 16.1 0.00 0.00 0.00 61 1015.7
20260906034057 28 131 4.8 16.1 0.00 0.00 0.00 61 1012.7
20260906033820 29 143 4.8 16.1 0.00 0.00 0.00 61 1015.7
20260906033549 28 116 4.8 12.9 0.00 0.00 0.00 61 1012.7
20260906033319 29 127 4.8 16.1 0.00 0.00 0.00 61 1015.5
20260906033102 29 118 3.2 16.1 0.00 0.00 0.00 61 1012.5
20260906032838 29 146 4.8 16.1 0.00 0.00 0.00 61 1015.4
20260906032528 29 100 6.4 16.1 0.00 0.00 0.00 61 1012.5
20260906032315 29 114 3.2 9.7 0.00 0.00 0.00 60 1015.3
20260906032018 29 125 3.2 9.7 0.00 0.00 0.00 60 1012.4
20260906031829 29 129 4.8 9.7 0.00 0.00 0.00 60 1015.3
20260906031554 29 121 3.2 11.3 0.00 0.00 0.00 60 1012.3
20260906031348 29 133 3.2 11.3 0.00 0.00 0.00 60 1015.1
20260906031028 29 133 3.2 11.3 0.00 0.00 0.00 60 1012.2
20260906030825 29 115 6.4 11.3 0.00 0.00 0.00 60 1015.0
20260906030515 29 96 3.2 11.3 0.00 0.00 0.00 60 1012.2
20260906030324 29 88 4.8 11.3 0.00 0.00 0.00 59 1015.0
20260906030005 29 104 4.8 9.7 0.00 0.00 0.00 59 1012.2
20260906025822 29 124 3.2 9.7 0.00 0.00 0.00 59 1014.9
20260906025538 29 141 3.2 9.7 0.00 0.00 0.00 59 1012.1
20260906025322 30 116 3.2 9.7 0.00 0.00 0.00 58 1015.0
20260906025032 29 95 3.2 9.7 0.00 0.00 0.00 58 1012.1
20260906024821 30 115 3.2 9.7 0.00 0.00 0.00 58 1014.8
20260906024523 29 116 1.6 9.7 0.00 0.00 0.00 57 1012.0
20260906024320 30 117 3.2 9.7 0.00 0.00 0.00 57 1014.7
20260906024022 30 129 1.6 6.4 0.00 0.00 0.00 57 1011.9
20260906023817 30 138 3.2 6.4 0.00 0.00 0.00 57 1014.6
20260906023502 30 131 3.2 4.8 0.00 0.00 0.00 56 1011.7
20260906023336 30 123 3.2 4.8 0.00 0.00 0.00 56 1014.5
20260906023036 30 125 0.0 6.4 0.00 0.00 0.00 56 1011.4
20260906022814 30 126 3.2 9.7 0.00 0.00 0.00 56 1014.3
20260906022530 30 116 0.0 9.7 0.00 0.00 0.00 55 1011.4
20260906022338 30 117 3.2 9.7 0.00 0.00 0.00 55 1014.2
20260906022052 30 145 3.2 9.7 0.00 0.00 0.00 55 1011.2
20260906021831 30 116 4.8 11.3 0.00 0.00 0.00 55 1014.1
20260906021544 30 130 3.2 11.3 0.00 0.00 0.00 54 1011.0
20260906021330 30 138 3.2 11.3 0.00 0.00 0.00 54 1014.1
20260906021037 30 116 3.2 11.3 0.00 0.00 0.00 54 1011.2
20260906020829 30 135 4.8 9.7 0.00 0.00 0.00 53 1014.0
20260906020529 30 118 1.6 6.4 0.00 0.00 0.00 53 1011.0
20260906020326 30 127 0.0 0.0 0.00 0.00 0.00 52 1014.0
20260906020011 30 114 0.0 0.0 0.00 0.00 0.00 52 1011.1
20260906015826 30 133 0.0 0.0 0.00 0.00 0.00 51 1013.8
20260906015504 30 111 0.0 0.0 0.00 0.00 0.00 51 1010.9
20260906015325 31 112 0.0 0.0 0.00 0.00 0.00 51 1013.8
20260906015100 30 101 0.0 0.0 0.00 0.00 0.00 51 1010.9
20260906014844 31 100 0.0 0.0 0.00 0.00 0.00 50 1013.8
20260906014532 31 104 0.0 0.0 0.00 0.00 0.00 50 1010.9
20260906014323 31 129 0.0 0.0 0.00 0.00 0.00 50 1013.7
20260906014025 31 163 0.0 0.0 0.00 0.00 0.00 49 1010.7
20260906013820 31 163 0.0 0.0 0.00 0.00 0.00 48 1013.6
20260906013521 31 163 0.0 0.0 0.00 0.00 0.00 48 1010.6
20260906013339 31 163 0.0 0.0 0.00 0.00 0.00 48 1013.5
20260906013109 31 163 0.0 0.0 0.00 0.00 0.00 48 1010.6
20260906012832 31 163 0.0 0.0 0.00 0.00 0.00 47 1013.4
20260906012553 31 163 0.0 0.0 0.00 0.00 0.00 47 1010.6
20260906012351 31 164 0.0 0.0 0.00 0.00 0.00 47 1013.4
20260906012026 31 163 0.0 0.0 0.00 0.00 0.00 47 1010.5
20260906011829 32 164 0.0 0.0 0.00 0.00 0.00 47 1013.3
20260906011515 31 163 0.0 0.0 0.00 0.00 0.00 47 1010.4
20260906011327 32 164 0.0 0.0 0.00 0.00 0.00 46 1013.3
20260906011003 31 163 0.0 0.0 0.00 0.00 0.00 46 1010.5
20260906010825 32 163 0.0 0.0 0.00 0.00 0.00 46 1013.2
20260906010538 32 163 0.0 0.0 0.00 0.00 0.00 46 1010.4
20260906010344 32 163 0.0 0.0 0.00 0.00 0.00 46 1013.3
20260906010002 32 164 0.0 0.0 0.00 0.00 0.00 46 1010.4
20260906005822 32 164 0.0 0.0 0.00 0.00 0.00 45 1013.3
20260906005556 32 164 0.0 0.0 0.00 0.00 0.00 45 1010.4
20260906005321 32 163 0.0 0.0 0.00 0.00 0.00 45 1013.2
20260906005048 32 163 0.0 0.0 0.00 0.00 0.00 45 1010.3
20260906004820 32 133 0.0 0.0 0.00 0.00 0.00 45 1013.2
20260906004538 32 145 0.0 0.0 0.00 0.00 0.00 45 1010.4
20260906004319 33 135 0.0 0.0 0.00 0.00 0.00 45 1013.2
20260906004030 32 153 0.0 0.0 0.00 0.00 0.00 44 1010.4
20260906003818 33 152 0.0 0.0 0.00 0.00 0.00 44 1013.2
20260906003520 33 139 0.0 0.0 0.00 0.00 0.00 44 1010.4
20260906003317 33 147 0.0 0.0 0.00 0.00 0.00 44 1013.3
20260906003016 33 142 0.0 0.0 0.00 0.00 0.00 44 1010.4
20260906002815 33 126 0.0 0.0 0.00 0.00 0.00 44 1013.2
20260906002505 33 144 0.0 0.0 0.00 0.00 0.00 44 1010.5
20260906002350 33 116 0.0 0.0 0.00 0.00 0.00 44 1013.2
20260906002042 33 72 0.0 0.0 0.00 0.00 0.00 44 1010.4
20260906001826 33 120 0.0 0.0 0.00 0.00 0.00 44 1013.2
20260906001538 33 143 0.0 0.0 0.00 0.00 0.00 43 1010.3
20260906001324 33 117 0.0 0.0 0.00 0.00 0.00 43 1013.1
20260906001027 33 132 0.0 0.0 0.00 0.00 0.00 43 1010.3
20260906000842 33 161 0.0 0.0 0.00 0.00 0.00 43 1013.2
20260906000553 33 144 0.0 0.0 0.00 0.00 0.00 43 1010.3
20260906000340 34 152 0.0 0.0 0.00 0.00 0.00 43 1013.2
20260906000040 33 138 0.0 0.0 0.00 0.00 0.00 43 1010.3
20260905235830 34 152 0.0 0.0 0.00 0.00 0.00 43 1013.0
20260905235531 33 133 0.0 0.0 0.00 0.00 0.00 43 1010.3
20260905235329 34 139 0.0 0.0 0.00 0.00 0.00 43 1013.1
20260905235014 33 135 0.0 0.0 0.00 0.00 0.00 43 1010.3
20260905234828 34 110 0.0 0.0 0.00 0.00 0.00 43 1013.1
20260905234505 33 156 0.0 0.0 0.00 0.00 0.00 43 1010.2
20260905234326 34 142 0.0 0.0 0.00 0.00 0.00 43 1013.2
20260905234056 34 140 0.0 0.0 0.00 0.00 0.00 43 1010.4
20260905233844 34 137 0.0 0.0 0.00 0.00 0.00 42 1013.2
20260905233526 34 146 0.0 0.0 0.00 0.00 0.00 42 1010.4
20260905233321 34 147 0.0 0.0 0.00 0.00 0.00 42 1013.2
20260905233009 34 170 0.0 0.0 0.00 0.00 0.00 42 1010.3
20260905232819 34 145 0.0 0.0 0.00 0.00 0.00 42 1013.2
20260905232502 34 162 0.0 0.0 0.00 0.00 0.00 42 1010.2
20260905232317 35 79 0.0 0.0 0.00 0.00 0.00 42 1013.0
20260905232058 34 111 0.0 0.0 0.00 0.00 0.00 42 1010.2
20260905231815 35 116 0.0 0.0 0.00 0.00 0.00 42 1013.0
20260905231548 34 75 0.0 0.0 0.00 0.00 0.00 42 1010.2
20260905231333 35 130 0.0 0.0 0.00 0.00 0.00 41 1013.0
20260905231039 35 112 0.0 0.0 0.00 0.00 0.00 41 1010.2
20260905230851 35 127 0.0 0.0 0.00 0.00 0.00 41 1013.1
20260905230501 35 126 0.0 0.0 0.00 0.00 0.00 41 1010.2
20260905230329 35 143 0.0 0.0 0.00 0.00 0.00 42 1013.1
20260905230104 35 51 0.0 0.0 0.00 0.00 0.00 41 1010.2
20260905225847 35 83 0.0 0.0 0.00 0.00 0.00 40 1012.9
20260905225527 35 119 0.0 0.0 0.00 0.00 0.00 40 1010.2
20260905225324 35 113 0.0 0.0 0.00 0.00 0.00 40 1012.9
20260905225011 35 168 0.0 0.0 0.00 0.00 0.00 40 1010.1
20260905224822 35 110 0.0 0.0 0.00 0.00 0.00 40 1013.0
20260905224616 35 160 0.0 0.0 0.00 0.00 0.00 40 1010.2
20260905224340 35 123 0.0 0.0 0.00 0.00 0.00 40 1012.9
20260905224045 35 86 0.0 0.0 0.00 0.00 0.00 40 1010.1
20260905223831 35 118 0.0 0.0 0.00 0.00 0.00 40 1012.9
20260905223537 35 90 0.0 0.0 0.00 0.00 0.00 39 1010.1
20260905223329 35 124 0.0 0.0 0.00 0.00 0.00 40 1012.9
20260905223030 35 133 0.0 0.0 0.00 0.00 0.00 40 1010.1
20260905222847 35 153 0.0 0.0 0.00 0.00 0.00 40 1012.8
20260905222554 35 122 0.0 0.0 0.00 0.00 0.00 39 1010.1
20260905222323 35 197 0.0 0.0 0.00 0.00 0.00 39 1013.0
20260905222023 35 210 0.0 0.0 0.00 0.00 0.00 39 1010.1
20260905221822 35 199 0.0 0.0 0.00 0.00 0.00 39 1013.0
20260905221518 35 175 0.0 0.0 0.00 0.00 0.00 39 1010.3
20260905221319 35 192 0.0 0.0 0.00 0.00 0.00 39 1013.1
20260905221102 35 211 0.0 0.0 0.00 0.00 0.00 39 1010.3
20260905220837 35 144 0.0 0.0 0.00 0.00 0.00 40 1013.1
20260905220531 35 154 0.0 0.0 0.00 0.00 0.00 40 1010.3
20260905220314 35 174 0.0 0.0 0.00 0.00 0.00 39 1013.0
20260905220014 35 176 0.0 0.0 0.00 0.00 0.00 40 1010.3
20260905215852 35 174 0.0 0.0 0.00 0.00 0.00 40 1013.1
20260905215546 34 101 0.0 0.0 0.00 0.00 0.00 40 1010.3
20260905215329 35 116 0.0 0.0 0.00 0.00 0.00 40 1013.2
20260905215038 34 94 0.0 0.0 0.00 0.00 0.00 40 1010.4
20260905214844 35 102 0.0 0.0 0.00 0.00 0.00 40 1013.3
20260905214602 34 123 0.0 0.0 0.00 0.00 0.00 40 1010.4
20260905214340 35 169 0.0 0.0 0.00 0.00 0.00 40 1013.2
20260905214046 34 166 0.0 0.0 0.00 0.00 0.00 40 1010.3
20260905213831 35 164 0.0 0.0 0.00 0.00 0.00 40 1013.1
20260905213537 34 184 0.0 0.0 0.00 0.00 0.00 40 1010.3
20260905213330 35 152 0.0 0.0 0.00 0.00 0.00 41 1013.3
20260905213032 34 115 0.0 0.0 0.00 0.00 0.00 40 1010.5
20260905212850 35 66 0.0 0.0 0.00 0.00 0.00 40 1013.3
20260905212551 34 89 0.0 0.0 0.00 0.00 0.00 41 1010.5
20260905212345 35 69 0.0 0.0 0.00 0.00 0.00 41 1013.3
20260905212026 34 99 0.0 0.0 0.00 0.00 0.00 41 1010.6
20260905211820 35 41 0.0 0.0 0.00 0.00 0.00 41 1013.4
20260905211538 34 87 0.0 0.0 0.00 0.00 0.00 42 1010.6
20260905211318 35 105 0.0 0.0 0.00 0.00 0.00 42 1013.5
20260905211021 34 175 0.0 0.0 0.00 0.00 0.00 41 1010.7
20260905210838 35 154 0.0 0.0 0.00 0.00 0.00 42 1013.6
20260905210500 34 198 0.0 0.0 0.00 0.00 0.00 41 1010.7
20260905210332 35 181 0.0 0.0 0.00 0.00 0.00 41 1013.6
20260905210104 34 179 0.0 0.0 0.00 0.00 0.00 41 1010.8
20260905205829 35 149 0.0 0.0 0.00 0.00 0.00 41 1013.6
20260905205547 34 122 0.0 0.0 0.00 0.00 0.00 42 1010.8
20260905205326 34 153 0.0 0.0 0.00 0.00 0.00 42 1013.7
20260905205043 33 231 0.0 0.0 0.00 0.00 0.00 42 1010.9
20260905204843 34 149 0.0 0.0 0.00 0.00 0.00 42 1013.8
20260905204505 33 85 0.0 0.0 0.00 0.00 0.00 42 1010.9
20260905204320 34 158 0.0 0.0 0.00 0.00 0.00 42 1013.9
20260905204059 33 158 0.0 0.0 0.00 0.00 0.00 42 1011.0
20260905203838 34 165 0.0 0.0 0.00 0.00 0.00 43 1013.8
20260905203531 33 104 0.0 0.0 0.00 0.00 0.00 43 1011.1
20260905203315 34 4 0.0 0.0 0.00 0.00 0.00 42 1013.9
20260905203013 33 195 0.0 0.0 0.00 0.00 0.00 43 1011.1
20260905202853 34 107 0.0 0.0 0.00 0.00 0.00 43 1014.1
20260905202547 33 100 0.0 0.0 0.00 0.00 0.00 43 1011.3
20260905202329 34 81 0.0 0.0 0.00 0.00 0.00 43 1014.2
20260905202039 33 122 0.0 0.0 0.00 0.00 0.00 44 1011.3
20260905201847 33 149 0.0 0.0 0.00 0.00 0.00 44 1014.2
20260905201507 33 123 0.0 0.0 0.00 0.00 0.00 43 1011.4
20260905201327 34 136 0.0 0.0 0.00 0.00 0.00 43 1014.2
20260905201101 33 97 0.0 0.0 0.00 0.00 0.00 43 1011.4
20260905200823 34 201 0.0 0.0 0.00 0.00 0.00 41 1014.3
20260905200553 33 219 0.0 0.0 0.00 0.00 0.00 42 1011.7
20260905200319 34 214 0.0 0.0 0.00 0.00 0.00 43 1014.5
20260905200045 33 208 0.0 0.0 0.00 0.00 0.00 43 1011.7
20260905195817 34 161 0.0 0.0 0.00 0.00 0.00 43 1014.6
20260905195540 33 143 0.0 0.0 0.00 0.00 0.00 45 1011.8
20260905195325 33 102 0.0 0.0 0.00 0.00 0.00 44 1014.6
20260905195033 33 55 0.0 0.0 0.00 0.00 0.00 44 1011.9
20260905194822 33 101 0.0 0.0 0.00 0.00 0.00 45 1014.7
20260905194521 33 354 0.0 0.0 0.00 0.00 0.00 44 1011.9
20260905194319 33 8 0.0 0.0 0.00 0.00 0.00 44 1014.8
20260905194015 33 55 0.0 0.0 0.00 0.00 0.00 45 1012.1
20260905193817 33 91 0.0 0.0 0.00 0.00 0.00 45 1015.0
20260905193557 33 89 0.0 0.0 0.00 0.00 0.00 45 1012.2
20260905193314 33 118 0.0 0.0 0.00 0.00 0.00 45 1015.1
20260905193051 33 139 0.0 0.0 0.00 0.00 0.00 45 1012.3
20260905192832 33 87 0.0 0.0 0.00 0.00 0.00 46 1015.2
20260905192545 33 183 0.0 0.0 0.00 0.00 0.00 46 1012.3
20260905192330 33 198 0.0 0.0 0.00 0.00 0.00 46 1015.3
20260905192037 33 208 0.0 0.0 0.00 0.00 0.00 46 1012.6
20260905191846 33 139 0.0 0.0 0.00 0.00 0.00 46 1015.5
20260905191608 33 161 0.0 0.0 0.00 0.00 0.00 45 1012.7
20260905191322 33 127 0.0 0.0 0.00 0.00 0.00 45 1015.5
20260905191055 33 93 0.0 0.0 0.00 0.00 0.00 46 1012.8
20260905190818 33 129 0.0 0.0 0.00 0.00 0.00 47 1015.6
20260905190545 32 354 0.0 0.0 0.00 0.00 0.00 46 1012.7
20260905190400 33 21 0.0 0.0 0.00 0.00 0.00 46 1015.6
20260905190015 32 166 0.0 0.0 0.00 0.00 0.00 46 1013.0
20260905185830 33 139 0.0 0.0 0.00 0.00 0.00 46 1015.8
20260905185501 32 142 0.0 0.0 0.00 0.00 0.00 46 1012.9
20260905185328 33 201 0.0 0.0 0.00 0.00 0.00 47 1015.8
20260905185053 32 125 0.0 0.0 0.00 0.00 0.00 47 1013.1
20260905184826 33 122 0.0 0.0 0.00 0.00 0.00 48 1015.8
20260905184555 32 230 0.0 0.0 0.00 0.00 0.00 48 1013.0
20260905184323 33 170 0.0 0.0 0.00 0.00 0.00 48 1015.9
20260905184037 32 185 0.0 0.0 0.00 0.00 0.00 49 1013.2
20260905183820 32 190 0.0 0.0 0.00 0.00 0.00 49 1016.0
20260905183530 32 100 0.0 0.0 0.00 0.00 0.00 49 1013.1
20260905183318 32 175 0.0 0.0 0.00 0.00 0.00 49 1016.0
20260905183019 32 130 0.0 0.0 0.00 0.00 0.00 48 1013.3
20260905182815 32 127 0.0 0.0 0.00 0.00 0.00 48 1016.1
20260905182515 32 162 0.0 0.0 0.00 0.00 0.00 48 1013.3
20260905182337 32 143 0.0 0.0 0.00 0.00 0.00 49 1016.3
20260905182035 32 85 0.0 0.0 0.00 0.00 0.00 49 1013.3
20260905181830 32 103 0.0 0.0 0.00 0.00 0.00 50 1016.3
20260905181531 32 45 0.0 0.0 0.00 0.00 0.00 49 1013.5
20260905181328 32 96 0.0 0.0 0.00 0.00 0.00 49 1016.4
20260905181013 32 159 0.0 0.0 0.00 0.00 0.00 49 1013.7
20260905180826 32 147 0.0 0.0 0.00 0.00 0.00 50 1016.5
20260905180505 32 147 0.0 0.0 0.00 0.00 0.00 51 1013.7
20260905180323 32 131 0.0 0.0 0.00 0.00 0.00 51 1016.6
20260905180107 32 168 0.0 0.0 0.00 0.00 0.00 53 1013.8
20260905175821 32 216 0.0 0.0 0.00 0.00 0.00 54 1016.6
20260905175553 31 237 0.0 0.0 0.00 0.00 0.00 53 1014.0
20260905175339 32 168 0.0 0.0 0.00 0.00 0.00 53 1016.8
20260905175039 31 23 0.0 0.0 0.00 0.00 0.00 54 1014.0
20260905174830 32 12 0.0 0.0 0.00 0.00 0.00 53 1016.9
20260905174533 31 122 0.0 0.0 0.00 0.00 0.00 54 1014.2
20260905174328 32 157 0.0 0.0 0.00 0.00 0.00 54 1017.0
20260905174013 31 165 0.0 0.0 0.00 0.00 0.00 58 1014.3
20260905173825 32 278 0.0 0.0 0.00 0.00 0.00 59 1017.1
20260905173503 31 266 0.0 0.0 0.00 0.00 0.00 60 1014.2
20260905173323 32 231 0.0 0.0 0.00 0.00 0.00 60 1017.1
20260905173111 31 257 0.0 0.0 0.00 0.00 0.00 59 1014.2
20260905172821 31 54 0.0 0.0 0.00 0.00 0.00 58 1017.1
20260905172545 31 174 0.0 0.0 0.00 0.00 0.00 58 1014.4
20260905172319 31 134 0.0 0.0 0.00 0.00 0.00 58 1017.2
20260905172035 30 150 0.0 0.0 0.00 0.00 0.00 61 1014.4
20260905171838 31 118 0.0 0.0 0.00 0.00 0.00 61 1017.2
20260905171558 30 218 0.0 0.0 0.00 0.00 0.00 61 1014.5
20260905171314 30 180 0.0 0.0 0.00 0.00 0.00 62 1017.2
20260905171029 30 231 0.0 0.0 0.00 0.00 0.00 63 1014.5
20260905170831 30 16 0.0 0.0 0.00 0.00 0.00 63 1017.3
20260905170511 30 359 0.0 0.0 0.00 0.00 0.00 63 1014.5
20260905170328 30 235 0.0 0.0 0.00 0.00 0.00 63 1017.4
20260905170044 30 236 0.0 0.0 0.00 0.00 0.00 63 1014.6
20260905165825 30 243 0.0 0.0 0.00 0.00 0.00 63 1017.4
20260905165530 30 170 0.0 0.0 0.00 0.00 0.00 64 1014.6
20260905165323 30 170 0.0 0.0 0.00 0.00 0.00 63 1017.4
20260905165022 30 98 0.0 0.0 0.00 0.00 0.00 63 1014.6
20260905164822 30 133 0.0 0.0 0.00 0.00 0.00 63 1017.5
20260905164505 30 253 0.0 0.0 0.00 0.00 0.00 64 1014.6
20260905164320 30 157 0.0 0.0 0.00 0.00 0.00 64 1017.4
20260905164054 30 180 0.0 0.0 0.00 0.00 0.00 66 1014.7
20260905163818 30 254 0.0 0.0 0.00 0.00 0.00 67 1017.4
20260905163545 30 286 0.0 0.0 0.00 0.00 0.00 67 1014.7
20260905163315 30 218 0.0 0.0 0.00 0.00 0.00 67 1017.5
20260905163035 30 201 0.0 0.0 0.00 0.00 0.00 67 1014.8
20260905162813 30 152 0.0 0.0 0.00 0.00 0.00 67 1017.5
20260905162517 29 222 0.0 0.0 0.00 0.00 0.00 67 1014.7
20260905162352 30 209 0.0 0.0 0.00 0.00 0.00 67 1017.5
20260905162048 29 172 0.0 0.0 0.00 0.00 0.00 67 1014.6
20260905161829 30 166 0.0 0.0 0.00 0.00 0.00 67 1017.5
20260905161559 29 151 0.0 0.0 0.00 0.00 0.00 67 1014.6
20260905161347 29 133 0.0 0.0 0.00 0.00 0.00 66 1017.4
20260905161001 29 191 0.0 0.0 0.00 0.00 0.00 69 1014.7
20260905160823 29 292 0.0 0.0 0.00 0.00 0.00 70 1017.4
20260905160553 28 226 0.0 0.0 0.00 0.00 0.00 69 1014.6
20260905160322 29 162 0.0 0.0 0.00 0.00 0.00 68 1017.3
20260905160043 28 139 0.0 0.0 0.00 0.00 0.00 70 1014.6
20260905155840 28 253 0.0 0.0 0.00 0.28 0.00 72 1017.4
20260905155515 28 208 0.0 0.0 0.00 0.28 0.00 73 1014.6
20260905155316 28 195 0.0 0.0 0.00 0.28 0.00 72 1017.4
20260905155058 28 256 0.0 0.0 0.00 0.28 0.00 72 1014.7
20260905154814 28 143 0.0 0.0 0.00 0.28 0.00 74 1017.3
20260905154557 28 241 0.0 0.0 0.00 0.28 0.00 74 1014.6
20260905154327 28 180 0.0 0.0 0.00 0.28 0.00 73 1017.3
20260905154016 28 210 0.0 0.0 0.00 0.28 0.00 74 1014.6
20260905153824 28 226 0.0 0.0 0.00 0.28 0.00 74 1017.3
20260905153505 28 214 0.0 0.0 0.00 0.28 0.00 75 1014.5
20260905153322 28 185 0.0 0.0 0.00 0.28 0.00 75 1017.3
20260905153037 28 200 0.0 0.0 0.00 0.28 0.00 75 1014.6
20260905152820 28 233 0.0 0.0 0.00 0.28 0.00 76 1017.2
20260905152528 27 199 0.0 0.0 0.00 0.28 0.00 77 1014.6
20260905152317 28 214 0.0 0.0 0.00 0.28 0.00 77 1017.2
20260905152019 27 216 0.0 0.0 0.00 0.28 0.00 77 1014.5
20260905151815 28 228 0.0 0.0 0.00 0.28 0.00 77 1017.3
20260905151519 27 213 0.0 0.0 0.00 0.28 0.00 77 1014.5
20260905151330 27 239 0.0 0.0 0.00 0.28 0.00 78 1017.2
20260905151056 27 193 0.0 0.0 0.00 0.28 0.00 78 1014.4
20260905150827 27 215 0.0 0.0 0.00 0.28 0.00 78 1017.2
20260905150548 27 228 0.0 0.0 0.00 0.28 0.00 79 1014.3
20260905150323 27 214 0.0 0.0 0.00 0.28 0.00 80 1017.2
20260905150041 27 166 0.0 0.0 0.00 0.28 0.00 79 1014.5
20260905145839 27 195 0.0 0.0 0.00 0.28 0.00 80 1017.3
20260905145519 27 217 0.0 0.0 0.00 0.28 0.00 80 1014.6
20260905145315 27 178 0.0 0.0 0.00 0.28 0.00 80 1017.4
20260905145001 26 194 0.0 0.0 0.00 0.28 0.00 81 1014.7
20260905144833 27 194 0.0 0.0 0.00 0.28 0.00 82 1017.4
20260905144555 26 227 0.0 0.0 0.00 0.28 0.00 81 1014.6
20260905144329 26 170 0.0 0.0 0.00 0.28 0.00 82 1017.3
20260905144046 26 197 0.0 0.0 0.00 0.28 0.00 82 1014.6
20260905143824 26 214 0.0 0.0 0.00 0.28 0.00 83 1017.2
20260905143540 26 149 0.0 0.0 0.00 0.28 0.00 84 1014.5
20260905143340 26 191 0.0 0.0 0.00 0.28 0.00 85 1017.2
20260905143031 26 189 0.0 0.0 0.00 0.28 0.00 85 1014.5
20260905142830 26 197 0.0 0.0 0.00 0.28 0.00 86 1017.2
20260905142528 25 159 0.0 0.0 0.00 0.28 0.00 87 1014.5
20260905142325 26 206 0.0 0.0 0.00 0.28 0.00 87 1017.2
20260905142010 25 143 0.0 0.0 0.00 0.28 0.00 88 1014.5
20260905141822 25 184 0.0 0.0 0.00 0.28 0.00 88 1017.2
20260905141505 25 185 0.0 0.0 0.00 0.28 0.00 88 1014.4
20260905141321 25 184 0.0 0.0 0.00 0.28 0.00 88 1017.2
20260905141058 25 185 0.0 0.0 0.00 0.28 0.00 88 1014.4
20260905140817 25 147 0.0 0.0 0.00 0.28 0.00 88 1017.1
20260905140552 25 153 0.0 0.0 0.00 0.28 0.00 89 1014.5
20260905140316 25 222 0.0 0.0 0.00 0.28 0.00 89 1017.2
20260905140045 24 199 0.0 0.0 0.00 0.28 0.00 90 1014.6
20260905135814 25 63 0.0 0.0 0.00 0.36 0.00 90 1017.2
20260905135538 24 62 0.0 0.0 0.00 0.36 0.00 90 1014.6
20260905135314 24 63 0.0 1.6 0.00 0.36 0.00 90 1017.3
20260905135030 23 63 0.0 1.6 0.00 0.36 0.00 90 1014.7
20260905134833 24 63 0.0 4.8 0.00 0.36 0.00 90 1017.4
20260905134519 23 63 0.0 6.4 0.00 0.36 0.00 90 1014.7
20260905134351 23 63 0.0 6.4 0.00 0.36 0.00 90 1017.3
20260905134051 23 63 1.6 6.4 0.00 0.36 0.00 90 1014.5
20260905133827 23 63 3.2 6.4 0.00 0.36 0.00 91 1017.2
20260905133543 23 63 3.2 6.4 0.00 0.36 0.00 91 1014.4
20260905133325 23 65 3.2 6.4 0.00 0.36 0.00 91 1017.1
20260905133038 23 54 3.2 6.4 0.00 0.36 0.00 91 1014.5
20260905132824 23 197 3.2 4.8 0.00 0.36 0.00 91 1017.0
20260905132529 23 198 0.0 3.2 0.00 0.36 0.00 91 1014.4
20260905132322 23 198 0.0 3.2 0.00 0.36 0.00 91 1016.9
20260905132021 23 197 1.6 3.2 0.00 0.36 0.00 91 1014.2
20260905131820 23 198 1.6 3.2 0.00 0.36 0.00 91 1016.8
20260905131523 22 197 0.0 4.8 0.00 0.36 0.00 91 1014.2
20260905131338 23 197 1.6 4.8 0.00 0.36 0.00 91 1016.8
20260905131036 22 198 1.6 4.8 0.00 0.36 0.00 91 1014.1
20260905130816 23 197 3.2 4.8 0.00 0.36 0.00 91 1016.7
20260905130530 22 197 1.6 4.8 0.00 0.36 0.00 91 1013.9
20260905130353 22 198 1.6 4.8 0.00 0.36 0.00 91 1016.6
20260905130056 22 198 0.0 3.2 0.00 0.36 0.00 91 1013.8
20260905125852 22 197 1.6 3.2 0.00 0.41 0.00 91 1016.5
20260905125531 22 197 0.0 3.2 0.00 0.41 0.00 90 1013.8
20260905125329 22 198 0.0 3.2 0.00 0.41 0.00 90 1016.5
20260905125025 22 197 0.0 3.2 0.00 0.41 0.00 90 1013.8
20260905124827 22 198 1.6 3.2 0.00 0.41 0.00 90 1016.5
20260905124506 22 198 1.6 3.2 0.00 0.41 0.00 90 1013.7
20260905124325 22 198 1.6 4.8 0.00 0.41 0.00 90 1016.4
20260905124101 22 197 1.6 4.8 0.00 0.41 0.00 90 1013.6
20260905123820 22 197 1.6 4.8 0.00 0.41 0.00 89 1016.4
20260905123531 21 198 3.2 4.8 0.00 0.41 0.00 89 1013.7
20260905123339 22 359 3.2 4.8 0.00 0.41 0.00 89 1016.4
20260905123108 21 197 1.6 4.8 0.00 0.41 0.00 89 1013.7
20260905122817 22 197 0.0 4.8 0.00 0.41 0.00 89 1016.3
20260905122549 22 197 1.6 4.8 0.00 0.41 0.00 88 1013.4
20260905122315 22 198 3.2 3.2 0.00 0.41 0.00 88 1016.1
20260905122040 22 198 1.6 3.2 0.00 0.41 0.00 89 1013.4
20260905121831 22 198 1.6 3.2 0.00 0.41 0.00 89 1016.2
20260905121530 22 198 0.0 3.2 0.00 0.41 0.00 89 1013.3
20260905121329 22 197 0.0 3.2 0.00 0.41 0.00 90 1016.1
20260905121014 22 197 1.6 3.2 0.00 0.41 0.00 89 1013.3
20260905120826 22 197 3.2 3.2 0.00 0.41 0.00 89 1016.0
20260905120515 22 197 0.0 1.6 0.00 0.41 0.00 88 1013.4
20260905120323 22 197 0.0 1.6 0.00 0.41 0.00 88 1016.1
20260905120046 22 197 0.0 1.6 0.00 0.41 0.00 89 1013.4
20260905115821 22 197 0.0 3.2 0.00 0.43 0.00 89 1016.0
20260905115540 22 197 0.0 3.2 0.00 0.43 0.00 89 1013.2
20260905115339 23 197 1.6 3.2 0.00 0.43 0.00 89 1016.0
20260905115002 22 197 0.0 3.2 0.00 0.43 0.00 89 1013.2
20260905114816 23 197 1.6 3.2 0.00 0.43 0.00 89 1015.9
20260905114601 22 197 0.0 0.0 0.00 0.43 0.00 89 1013.3
20260905114314 23 197 0.0 0.0 0.00 0.43 0.00 88 1016.0
20260905114048 22 197 0.0 0.0 0.00 0.43 0.00 88 1013.3
20260905113852 23 197 0.0 0.0 0.00 0.43 0.00 88 1016.0
20260905113510 22 197 0.0 0.0 0.00 0.43 0.00 88 1013.3
20260905113329 23 197 0.0 0.0 0.00 0.43 0.00 88 1016.0
20260905113103 22 197 0.0 0.0 0.00 0.43 0.00 88 1013.2
20260905112827 23 197 0.0 0.0 0.00 0.43 0.00 88 1015.9
20260905112552 22 197 0.0 0.0 0.00 0.43 0.00 88 1013.2
20260905112324 23 197 0.0 0.0 0.00 0.43 0.00 87 1015.9
20260905112024 22 197 0.0 0.0 0.00 0.43 0.00 87 1013.2
20260905111822 23 197 0.0 0.0 0.00 0.43 0.00 87 1015.8
20260905111507 22 197 0.0 0.0 0.00 0.43 0.00 87 1013.1
20260905111320 23 197 0.0 0.0 0.00 0.43 0.00 87 1015.8
20260905111100 23 197 0.0 0.0 0.00 0.43 0.00 87 1012.9
20260905110839 23 197 0.0 0.0 0.00 0.43 0.00 87 1015.7
20260905110548 23 197 0.0 1.6 0.00 0.43 0.00 87 1013.0
20260905110330 23 197 0.0 1.6 0.00 0.43 0.00 87 1015.7
20260905110040 23 197 0.0 1.6 0.00 0.43 0.00 87 1012.9
20260905105829 23 197 0.0 3.2 0.00 0.43 0.00 87 1015.7
20260905105530 23 197 0.0 3.2 0.00 0.43 0.00 86 1012.9
20260905105326 23 197 1.6 3.2 0.00 0.43 0.00 86 1015.8
20260905105058 23 197 1.6 3.2 0.00 0.43 0.00 86 1013.1
20260905104824 23 197 0.0 1.6 0.00 0.43 0.00 87 1015.8
20260905104547 23 197 0.0 1.6 0.00 0.43 0.00 87 1013.1
20260905104321 23 197 0.0 3.2 0.00 0.43 0.00 87 1015.8
20260905104022 23 197 0.0 3.2 0.00 0.43 0.00 87 1013.1
20260905103819 23 197 0.0 3.2 0.00 0.43 0.00 87 1015.8
20260905103600 23 197 1.6 3.2 0.00 0.43 0.00 87 1013.0
20260905103337 23 197 1.6 3.2 0.00 0.43 0.00 87 1015.7
20260905103032 23 197 0.0 1.6 0.00 0.43 0.00 87 1013.0
20260905102814 24 197 0.0 0.0 0.00 0.43 0.00 87 1015.7
20260905102514 23 197 0.0 0.0 0.00 0.43 0.00 87 1013.1
20260905102332 24 197 0.0 0.0 0.00 0.43 0.00 87 1015.8
20260905102006 23 197 0.0 1.6 0.00 0.43 0.00 87 1013.0
20260905101830 24 197 0.0 1.6 0.00 0.43 0.00 86 1015.8
20260905101607 23 197 0.0 1.6 0.00 0.43 0.00 86 1013.0
20260905101329 24 197 0.0 1.6 0.00 0.43 0.00 86 1015.8
20260905101052 23 197 0.0 0.0 0.00 0.43 0.00 86 1013.0
20260905100826 24 197 0.0 0.0 0.00 0.43 0.00 86 1015.8
20260905100544 23 197 0.0 0.0 0.00 0.43 0.00 86 1012.9
20260905100324 24 197 0.0 0.0 0.00 0.43 0.00 86 1015.7
20260905100108 24 197 0.0 1.6 0.00 0.43 0.00 86 1012.9
20260905095822 24 197 0.0 4.8 0.00 0.43 0.00 86 1015.7
20260905095528 24 197 0.0 4.8 0.00 0.43 0.00 86 1012.9
20260905095320 24 197 0.0 4.8 0.00 0.43 0.00 86 1015.6
20260905095020 24 197 1.6 4.8 0.00 0.43 0.00 86 1012.9
20260905094818 24 197 0.0 6.4 0.00 0.43 0.00 86 1015.7
20260905094519 24 197 0.0 11.3 0.00 0.43 0.00 86 1012.9
20260905094316 24 197 1.6 11.3 0.00 0.43 0.00 86 1015.7
20260905094058 24 197 4.8 11.3 0.00 0.43 0.00 86 1013.0
20260905093829 24 197 1.6 6.4 0.00 0.43 0.00 86 1015.8
20260905093528 24 197 3.2 6.4 0.00 0.43 0.00 86 1012.9
20260905093326 24 197 3.2 6.4 0.00 0.43 0.00 86 1015.6
20260905093013 24 197 3.2 8.0 0.00 0.43 0.00 86 1012.8
20260905092824 24 197 3.2 9.7 0.00 0.43 0.00 86 1015.5
20260905092506 24 197 4.8 9.7 0.00 0.43 0.00 86 1012.8
20260905092321 24 197 4.8 9.7 0.00 0.43 0.00 86 1015.6
20260905092056 24 195 6.4 9.7 0.00 0.43 0.00 86 1012.9
20260905091839 24 201 6.4 12.9 0.00 0.43 0.00 86 1015.5
20260905091555 24 236 4.8 12.9 0.00 0.43 0.00 86 1012.9
20260905091331 24 191 6.4 12.9 0.00 0.43 0.00 86 1015.6
20260905091041 24 218 6.4 12.9 0.00 0.43 0.00 86 1012.9
20260905090850 24 210 6.4 9.7 0.00 0.43 0.00 86 1015.7
20260905090512 24 224 4.8 9.7 0.00 0.43 0.00 86 1013.0
20260905090327 24 199 4.8 9.7 0.00 0.43 0.00 86 1015.6
20260905090012 24 199 4.8 9.7 0.00 0.43 0.00 86 1013.0
20260905085826 24 199 6.4 9.7 0.00 0.43 0.00 86 1015.7
20260905085504 24 194 4.8 9.7 0.00 0.43 0.00 86 1012.9
20260905085324 24 195 6.4 9.7 0.00 0.43 0.00 85 1015.7
20260905085058 24 203 3.2 6.4 0.00 0.43 0.00 85 1012.9
20260905084843 24 187 3.2 6.4 0.00 0.43 0.00 85 1015.6
20260905084528 24 187 1.6 6.4 0.00 0.43 0.00 85 1012.9
20260905084340 24 187 3.2 6.4 0.00 0.43 0.00 85 1015.5
20260905084016 24 187 3.2 8.0 0.00 0.43 0.00 85 1012.9
20260905083830 24 187 3.2 8.0 0.00 0.43 0.00 85 1015.6
20260905083502 24 187 3.2 8.0 0.00 0.43 0.00 85 1012.9
20260905083327 24 210 3.2 8.0 0.00 0.43 0.00 85 1015.5
20260905083109 24 208 3.2 8.0 0.00 0.43 0.00 85 1012.8
20260905082844 24 205 4.8 8.0 0.00 0.43 0.00 85 1015.5
20260905082528 23 205 3.2 8.0 0.00 0.43 0.00 85 1012.7